Terminal Aerodrome Forecast
Issued by NWS Boise, ID

Home | Current Version | Previous Version | Text Only | Print | Product List | Glossary On
Versions: 1 2 3 4 5 6 7 8 9 10 11 12 13 14 15 16 17 18 19 20 21 22 23 24 25 26 27
000
FTUS45 KBOI 211128
TAFBNO
TAF
KBNO 211128Z 2112/2212 33005KT P6SM SCT250
     FM211800 05007KT P6SM BKN200
     FM220800 29005KT P6SM SCT200
      AMD NOT SKED=

USA.gov is the U.S. government's official web portal to all federal, state and local government web resources and services.